FW4175 Weather Reports


Display with metric or nautical units.
time (UTC)temp
F
wind
direction
speed
MPH
gust
MPH
rain 1hr
in
rain 24hr
in
rain mn
in
humidity
%
barometer
mb
20260902223501 91 202 10.0 10.0 0.00 0.00 0.00 65 1014.8
20260902223000 91 196 7.0 7.0 0.00 0.00 0.00 65 1014.9
20260902222458 91 201 4.0 5.0 0.00 0.00 0.00 66 1014.7
20260902221957 92 194 3.0 5.0 0.00 0.00 0.00 66 1014.7
20260902221457 91 158 3.0 6.0 0.00 0.00 0.00 64 1014.9
20260902220948 91 129 0.0 4.0 0.00 0.00 0.00 66 1014.9
20260902220447 90 181 3.0 5.0 0.00 0.00 0.00 66 1014.7
20260902215942 91 164 2.0 5.0 0.00 0.00 0.00 66 1014.8
20260902215438 91 184 2.0 11.0 0.00 0.00 0.00 65 1015.0
20260902214934 91 226 2.0 7.0 0.00 0.00 0.00 65 1015.1
20260902214432 91 194 5.0 11.0 0.00 0.00 0.00 64 1015.2
20260902213926 91 183 5.0 9.0 0.00 0.00 0.00 65 1015.0
20260902213423 92 179 5.0 9.0 0.00 0.00 0.00 64 1014.8
20260902212921 92 175 3.0 9.0 0.00 0.00 0.00 62 1015.0
20260902212417 92 200 3.0 10.0 0.00 0.00 0.00 62 1014.8
20260902211914 92 132 2.0 7.0 0.00 0.00 0.00 64 1014.9
20260902211410 91 183 5.0 14.0 0.00 0.00 0.00 64 1014.9
20260902210905 91 176 5.0 7.0 0.00 0.00 0.00 65 1015.0
20260902210405 92 195 5.0 9.0 0.00 0.00 0.00 66 1015.1
20260902205903 91 185 4.0 5.0 0.00 0.00 0.00 67 1015.3
20260902205357 90 225 4.0 6.0 0.00 0.00 0.00 66 1015.4
20260902204854 91 12 1.0 5.0 0.00 0.00 0.00 65 1015.0
20260902204353 91 174 2.0 8.0 0.00 0.00 0.00 66 1015.1
20260902203848 92 164 3.0 6.0 0.00 0.00 0.00 64 1015.2
20260902203344 92 234 3.0 10.0 0.00 0.00 0.00 65 1015.2
20260902202838 92 125 2.0 7.0 0.00 0.00 0.00 64 1015.0
20260902202334 92 229 2.0 9.0 0.00 0.00 0.00 63 1015.1
20260902201830 92 208 7.0 8.0 0.00 0.00 0.00 63 1015.0
20260902201325 91 153 4.0 9.0 0.00 0.00 0.00 64 1015.2
20260902200820 91 170 3.0 10.0 0.00 0.00 0.00 62 1015.3
20260902200315 92 264 7.0 10.0 0.00 0.00 0.00 60 1015.2
20260902195810 93 177 3.0 15.0 0.00 0.00 0.00 62 1015.2
20260902195309 92 161 3.0 9.0 0.00 0.00 0.00 65 1015.4
20260902194804 91 177 7.0 7.0 0.00 0.00 0.00 65 1015.3
20260902194259 91 180 6.0 14.0 0.00 0.00 0.00 64 1015.3
20260902193754 92 173 3.0 9.0 0.00 0.00 0.00 66 1015.1
20260902193250 92 204 4.0 13.0 0.00 0.00 0.00 65 1015.4
20260902192749 91 168 4.0 11.0 0.00 0.00 0.00 67 1015.4
20260902192248 91 156 4.0 9.0 0.00 0.00 0.00 66 1015.7
20260902191747 92 165 7.0 9.0 0.00 0.00 0.00 65 1015.6
20260902191243 91 155 4.0 8.0 0.00 0.00 0.00 66 1015.6
20260902190738 91 88 3.0 6.0 0.00 0.00 0.00 68 1015.7
20260902190237 91 180 3.0 5.0 0.00 0.00 0.00 66 1015.8
20260902185733 91 150 3.0 6.0 0.00 0.00 0.00 67 1015.9
20260902185229 92 188 4.0 9.0 0.00 0.00 0.00 65 1015.7
20260902184725 93 137 7.0 17.0 0.00 0.00 0.00 64 1015.4
20260902184220 92 183 5.0 11.0 0.00 0.00 0.00 65 1015.7
20260902183716 92 146 9.0 12.0 0.00 0.00 0.00 63 1015.6
20260902183212 92 145 5.0 11.0 0.00 0.00 0.00 66 1015.8
20260902182708 92 151 8.0 13.0 0.00 0.00 0.00 64 1015.7
20260902182205 92 161 10.0 10.0 0.00 0.00 0.00 64 1016.0
20260902181700 91 156 5.0 8.0 0.00 0.00 0.00 67 1016.0
20260902181200 91 180 6.0 8.0 0.00 0.00 0.00 65 1016.2
20260902180654 91 161 2.0 8.0 0.00 0.00 0.00 68 1016.0
20260902180150 91 174 6.0 7.0 0.00 0.00 0.00 66 1016.1
20260902175649 90 164 5.0 12.0 0.00 0.00 0.00 66 1015.9
20260902175146 90 174 3.0 12.0 0.00 0.00 0.00 66 1016.1
20260902174641 90 129 11.0 11.0 0.00 0.00 0.00 65 1015.8
20260902174137 90 139 9.0 15.0 0.00 0.00 0.00 66 1016.1
20260902173632 90 123 7.0 8.0 0.00 0.00 0.00 66 1016.1
20260902173127 90 151 9.0 13.0 0.00 0.00 0.00 67 1016.0
20260902172620 91 176 8.0 13.0 0.00 0.00 0.00 66 1015.8
20260902172115 91 134 7.0 9.0 0.00 0.00 0.00 69 1015.9
20260902171611 90 163 6.0 8.0 0.00 0.00 0.00 68 1015.9
20260902171107 90 148 12.0 12.0 0.00 0.00 0.00 67 1015.9
20260902170602 89 114 3.0 10.0 0.00 0.00 0.00 68 1016.1
20260902170058 89 135 6.0 12.0 0.00 0.00 0.00 70 1016.2
20260902165557 89 163 5.0 10.0 0.00 0.00 0.00 71 1016.2
20260902165052 89 197 5.0 8.0 0.00 0.00 0.00 71 1016.3
20260902164547 88 198 7.0 12.0 0.00 0.00 0.00 71 1016.3
20260902164046 88 189 4.0 6.0 0.00 0.00 0.00 73 1016.4
20260902163542 87 159 5.0 11.0 0.00 0.00 0.00 69 1016.4
20260902163039 88 147 5.0 11.0 0.00 0.00 0.00 69 1016.3
20260902162534 87 173 6.0 10.0 0.00 0.00 0.00 70 1016.6
20260902162029 87 135 4.0 8.0 0.00 0.00 0.00 75 1016.7
20260902161524 86 158 5.0 9.0 0.00 0.00 0.00 71 1016.7
20260902161020 86 143 5.0 9.0 0.00 0.00 0.00 71 1016.6
20260902160515 86 171 3.0 7.0 0.00 0.00 0.00 73 1016.7
20260902160016 86 200 4.0 5.0 0.00 0.00 0.00 74 1016.7
20260902155509 86 218 3.0 7.0 0.00 0.00 0.00 74 1016.9
20260902155008 86 205 7.0 7.0 0.00 0.00 0.00 74 1017.0
20260902154503 85 172 3.0 5.0 0.00 0.00 0.00 75 1016.7
20260902153958 85 207 3.0 8.0 0.00 0.00 0.00 76 1016.8
20260902153455 85 155 2.0 5.0 0.00 0.00 0.00 75 1017.0
20260902152951 85 219 3.0 6.0 0.00 0.00 0.00 75 1017.1
20260902152442 84 178 3.0 6.0 0.00 0.00 0.00 76 1016.9
20260902151937 85 190 3.0 7.0 0.00 0.00 0.00 76 1017.1
20260902151433 84 157 3.0 5.0 0.00 0.00 0.00 77 1016.9
20260902150932 84 180 3.0 6.0 0.00 0.00 0.00 80 1016.8
20260902150429 83 165 5.0 7.0 0.00 0.00 0.00 77 1016.9
20260902145928 83 223 3.0 6.0 0.00 0.00 0.00 78 1016.7
20260902145424 83 214 2.0 5.0 0.00 0.00 0.00 80 1017.1
20260902144919 83 221 2.0 5.0 0.00 0.00 0.00 79 1017.2
20260902144415 82 240 3.0 6.0 0.00 0.00 0.00 79 1017.4
20260902143914 82 229 2.0 5.0 0.00 0.00 0.00 81 1017.2
20260902143410 81 206 2.0 7.0 0.00 0.00 0.00 81 1017.1
20260902142905 81 183 3.0 7.0 0.00 0.00 0.00 81 1017.3
20260902142401 81 187 3.0 6.0 0.00 0.00 0.00 81 1017.2
20260902141856 81 239 1.0 5.0 0.00 0.00 0.00 82 1017.2
20260902141352 81 235 4.0 5.0 0.00 0.00 0.00 84 1017.1
20260902140851 80 196 2.0 6.0 0.00 0.00 0.00 84 1017.3
20260902140346 80 204 3.0 4.0 0.00 0.00 0.00 84 1017.3
20260902135846 80 220 3.0 5.0 0.00 0.00 0.00 84 1017.2
20260902135342 80 196 3.0 4.0 0.00 0.00 0.00 85 1017.2
20260902134841 80 198 4.0 5.0 0.00 0.00 0.00 84 1017.5
20260902134336 80 223 3.0 5.0 0.00 0.00 0.00 83 1017.5
20260902133831 80 204 7.0 11.0 0.00 0.00 0.00 82 1017.5
20260902133331 80 196 5.0 6.0 0.00 0.00 0.00 82 1017.6
20260902132826 79 203 4.0 7.0 0.00 0.00 0.00 84 1017.6
20260902132321 79 218 4.0 5.0 0.00 0.00 0.00 84 1017.8
20260902131817 78 235 0.0 6.0 0.00 0.00 0.00 86 1017.8
20260902131308 77 215 2.0 4.0 0.00 0.00 0.00 87 1017.6
20260902130808 77 321 0.0 2.0 0.00 0.00 0.00 87 1017.7
20260902130303 77 234 0.0 5.0 0.00 0.00 0.00 88 1018.1
20260902125758 77 5 3.0 6.0 0.00 0.00 0.00 87 1017.8
20260902125254 77 208 2.0 5.0 0.00 0.00 0.00 86 1017.7
20260902124750 77 295 5.0 9.0 0.00 0.00 0.00 86 1018.1
20260902124246 78 210 4.0 7.0 0.00 0.00 0.00 86 1017.5
20260902123741 78 262 18.0 19.0 0.00 0.00 0.00 85 1018.0
20260902123237 78 236 0.0 5.0 0.00 0.00 0.00 84 1016.9
20260902122735 78 176 3.0 6.0 0.00 0.00 0.00 84 1017.0
20260902122232 78 183 4.0 5.0 0.00 0.00 0.00 84 1016.9
20260902121731 77 161 2.0 9.0 0.00 0.00 0.00 85 1017.0
20260902121226 77 175 3.0 5.0 0.00 0.00 0.00 86 1017.0
20260902120722 77 129 3.0 7.0 0.00 0.00 0.00 86 1017.0
20260902120218 77 171 1.0 5.0 0.00 0.00 0.00 87 1016.8
20260902115718 76 187 2.0 5.0 0.00 0.00 0.00 87 1016.7
20260902115214 76 175 5.0 9.0 0.00 0.00 0.00 87 1016.7
20260902114710 76 199 3.0 6.0 0.00 0.00 0.00 88 1016.8
20260902114206 76 164 2.0 5.0 0.00 0.00 0.00 88 1016.7
20260902113701 76 157 3.0 6.0 0.00 0.00 0.00 88 1016.4
20260902113155 76 155 3.0 5.0 0.00 0.00 0.00 88 1016.6
20260902112650 76 188 3.0 6.0 0.00 0.00 0.00 88 1016.6
20260902112147 76 143 3.0 7.0 0.00 0.00 0.00 88 1016.3
20260902111648 76 168 1.0 3.0 0.00 0.00 0.00 88 1016.8
20260902111143 76 179 3.0 6.0 0.00 0.00 0.00 88 1016.7
20260902110639 76 178 3.0 5.0 0.00 0.00 0.00 88 1016.4
20260902110135 76 150 3.0 4.0 0.00 0.00 0.00 88 1016.6
20260902105634 76 167 4.0 6.0 0.00 0.00 0.00 88 1016.3
20260902105130 76 166 1.0 7.0 0.00 0.00 0.00 88 1016.9
20260902104625 77 181 4.0 7.0 0.00 0.00 0.00 88 1016.8
20260902104120 76 192 2.0 5.0 0.00 0.00 0.00 89 1016.6
20260902103620 77 191 3.0 7.0 0.00 0.00 0.00 89 1016.8
20260902103115 76 194 2.0 7.0 0.00 0.00 0.00 89 1016.9
20260902102611 76 202 7.0 7.0 0.00 0.00 0.00 89 1016.8
20260902102109 76 188 3.0 5.0 0.00 0.00 0.00 89 1016.8
20260902101603 76 193 2.0 6.0 0.00 0.00 0.00 90 1016.8
20260902101103 76 150 4.0 5.0 0.00 0.00 0.00 90 1016.9
20260902100557 76 155 4.0 4.0 0.00 0.00 0.00 91 1016.8
20260902100052 76 175 2.0 4.0 0.00 0.00 0.00 91 1016.9
20260902095546 76 224 2.0 5.0 0.00 0.00 0.00 91 1017.0
20260902095045 76 155 2.0 4.0 0.00 0.00 0.00 91 1017.0
20260902094541 76 193 4.0 6.0 0.00 0.00 0.00 91 1017.0
20260902094036 76 204 2.0 7.0 0.00 0.00 0.00 91 1016.9
20260902093531 76 158 2.0 4.0 0.00 0.00 0.00 91 1016.9
20260902093031 76 202 2.0 5.0 0.00 0.00 0.00 91 1016.9
20260902092526 76 183 3.0 5.0 0.00 0.00 0.00 91 1016.8
20260902092021 76 176 3.0 3.0 0.00 0.00 0.00 92 1016.8
20260902091516 76 183 2.0 4.0 0.00 0.00 0.00 92 1017.1
20260902091012 76 193 2.0 3.0 0.00 0.00 0.00 92 1016.9
20260902090508 76 196 3.0 4.0 0.00 0.00 0.00 93 1017.1
20260902090007 76 201 1.0 4.0 0.00 0.00 0.00 93 1017.1
20260902085502 75 181 1.0 4.0 0.00 0.00 0.00 93 1016.8
20260902084956 75 187 0.0 3.0 0.00 0.00 0.00 94 1016.8
20260902084453 76 189 2.0 2.0 0.00 0.00 0.00 94 1016.8
20260902083948 76 189 2.0 3.0 0.00 0.00 0.00 94 1016.7
20260902083448 76 168 0.0 3.0 0.00 0.00 0.00 94 1016.7
20260902082943 76 133 1.0 3.0 0.00 0.00 0.00 94 1016.6
20260902082439 76 169 1.0 2.0 0.00 0.00 0.00 94 1016.7
20260902081935 76 183 0.0 3.0 0.00 0.00 0.00 94 1016.6
20260902081431 76 171 3.0 4.0 0.00 0.00 0.00 95 1016.6
20260902080926 76 187 1.0 3.0 0.00 0.00 0.00 95 1016.7
20260902080422 76 177 1.0 5.0 0.00 0.00 0.00 95 1016.8
20260902075922 76 159 2.0 2.0 0.00 0.00 0.00 95 1016.9
20260902075418 76 167 2.0 4.0 0.00 0.00 0.00 95 1016.8
20260902074913 75 165 2.0 4.0 0.00 0.00 0.00 96 1016.6
20260902074409 75 173 1.0 2.0 0.00 0.00 0.00 96 1016.4
20260902073903 75 130 2.0 2.0 0.00 0.00 0.00 97 1016.8
20260902073400 75 195 0.0 1.0 0.00 0.00 0.00 96 1016.6
20260902072855 75 180 0.0 1.0 0.00 0.00 0.00 96 1016.9
20260902072351 76 188 1.0 2.0 0.00 0.00 0.00 95 1016.6
20260902071847 76 177 1.0 2.0 0.00 0.00 0.00 95 1016.6
20260902071347 76 215 0.0 2.0 0.00 0.00 0.00 95 1016.9
20260902070843 76 170 0.0 2.0 0.00 0.00 0.00 95 1016.6
20260902070338 76 181 0.0 2.0 0.00 0.00 0.00 96 1016.6
20260902065836 75 155 0.0 2.0 0.00 0.00 0.00 96 1016.3
20260902065332 75 136 0.0 2.0 0.00 0.00 0.00 95 1016.3
20260902064827 76 152 1.0 1.0 0.00 0.00 0.00 95 1016.8
20260902064324 76 122 0.0 2.0 0.00 0.00 0.00 94 1016.7
20260902063819 77 141 2.0 2.0 0.00 0.00 0.00 94 1016.8
20260902063318 77 164 0.0 1.0 0.00 0.00 0.00 93 1017.0
20260902062813 77 168 0.0 2.0 0.00 0.00 0.00 92 1016.9
20260902062308 77 217 0.0 2.0 0.00 0.00 0.00 92 1017.0
20260902061808 78 191 1.0 2.0 0.00 0.00 0.00 92 1016.9
20260902061303 78 114 0.0 2.0 0.00 0.00 0.00 91 1017.1
20260902060759 78 184 2.0 3.0 0.00 0.00 0.00 92 1016.9
20260902060254 78 213 0.0 1.0 0.00 0.00 0.00 91 1016.7
20260902055749 78 157 0.0 2.0 0.00 0.00 0.00 90 1016.6
20260902055241 79 217 2.0 3.0 0.00 0.00 0.00 90 1017.0
20260902054740 79 183 3.0 4.0 0.00 0.00 0.00 90 1016.6
20260902054231 79 206 2.0 4.0 0.00 0.00 0.00 90 1016.6
20260902053726 79 193 2.0 3.0 0.00 0.00 0.00 90 1016.6
20260902053226 79 156 1.0 5.0 0.00 0.00 0.00 89 1016.7
20260902052725 79 229 1.0 4.0 0.00 0.00 0.00 89 1016.6
20260902052221 79 186 2.0 4.0 0.00 0.00 0.00 89 1016.6
20260902051720 80 218 3.0 6.0 0.00 0.00 0.00 89 1016.7
20260902051215 80 186 0.0 4.0 0.00 0.00 0.00 89 1016.4
20260902050709 80 170 2.0 5.0 0.00 0.00 0.00 88 1016.6
20260902050205 80 154 0.0 3.0 0.00 0.00 0.00 88 1016.7
20260902045704 80 150 2.0 7.0 0.00 0.01 0.01 88 1016.6
20260902045201 80 178 4.0 6.0 0.00 0.01 0.01 88 1016.6
20260902044656 80 173 2.0 5.0 0.00 0.01 0.01 88 1016.8
20260902044152 80 185 2.0 7.0 0.00 0.01 0.01 88 1016.7
20260902043647 80 191 3.0 8.0 0.00 0.01 0.01 88 1016.4
20260902043142 80 175 1.0 3.0 0.00 0.01 0.01 89 1016.6
20260902042641 80 165 5.0 7.0 0.00 0.01 0.01 88 1016.6
20260902042137 81 207 6.0 8.0 0.00 0.01 0.01 88 1016.6
20260902041636 81 166 2.0 5.0 0.00 0.01 0.01 88 1016.6
20260902041131 81 165 4.0 5.0 0.00 0.01 0.01 88 1016.4
20260902040630 81 215 4.0 7.0 0.00 0.01 0.01 87 1016.7
20260902040126 82 198 2.0 5.0 0.00 0.01 0.01 87 1016.6
20260902035624 82 169 4.0 6.0 0.00 0.01 0.01 87 1016.4
20260902035120 82 219 3.0 8.0 0.00 0.01 0.01 87 1016.7
20260902034619 82 180 2.0 6.0 0.00 0.01 0.01 87 1016.8
20260902034113 82 199 2.0 5.0 0.00 0.01 0.01 87 1016.7
20260902033612 82 152 4.0 5.0 0.00 0.01 0.01 87 1016.6
20260902033107 82 200 4.0 7.0 0.00 0.01 0.01 87 1016.6
20260902032606 82 211 6.0 7.0 0.00 0.01 0.01 87 1016.4
20260902032101 82 208 4.0 6.0 0.00 0.01 0.01 87 1016.8
20260902031555 82 194 2.0 5.0 0.00 0.01 0.01 87 1016.8
20260902031051 82 193 4.0 5.0 0.00 0.01 0.01 87 1016.8
20260902030546 83 226 1.0 3.0 0.00 0.01 0.01 86 1016.9
20260902030045 83 150 3.0 5.0 0.00 0.01 0.01 86 1017.0
20260902025540 83 219 5.0 7.0 0.00 0.01 0.01 85 1017.0
20260902025035 83 188 3.0 7.0 0.00 0.01 0.01 85 1017.0
20260902024531 83 178 4.0 6.0 0.00 0.01 0.01 85 1016.8
20260902024031 83 226 4.0 7.0 0.00 0.01 0.01 85 1016.8
20260902023527 83 204 6.0 6.0 0.00 0.01 0.01 85 1016.9
20260902023021 84 180 3.0 6.0 0.00 0.01 0.01 85 1016.8
20260902022516 84 208 4.0 5.0 0.00 0.01 0.01 84 1016.6
20260902022012 84 208 2.0 6.0 0.00 0.01 0.01 84 1016.9
20260902021507 84 183 1.0 5.0 0.00 0.01 0.01 83 1016.6
20260902021002 84 198 2.0 4.0 0.00 0.01 0.01 83 1016.8
20260902020458 84 196 3.0 6.0 0.00 0.01 0.01 83 1016.7
20260902015953 84 186 5.0 9.0 0.00 0.01 0.01 83 1016.8
20260902015449 84 190 1.0 5.0 0.00 0.01 0.01 84 1016.7
20260902014944 84 190 4.0 7.0 0.00 0.01 0.01 84 1016.6
20260902014441 85 206 4.0 5.0 0.00 0.01 0.01 84 1016.7
20260902013940 85 214 2.0 4.0 0.00 0.01 0.01 84 1016.4
20260902013436 85 211 4.0 6.0 0.00 0.01 0.01 84 1016.6
20260902012931 84 212 2.0 6.0 0.00 0.01 0.01 84 1016.2
20260902012426 84 193 4.0 7.0 0.00 0.01 0.01 85 1016.2
20260902011922 84 142 2.0 4.0 0.00 0.01 0.01 85 1016.1
20260902011416 84 146 2.0 4.0 0.00 0.01 0.01 85 1015.9
20260902010916 85 179 3.0 5.0 0.00 0.01 0.01 85 1015.7
20260902010411 85 171 2.0 4.0 0.00 0.01 0.01 84 1015.9
20260902005911 85 167 2.0 3.0 0.00 0.01 0.01 84 1015.7
20260902005410 85 170 2.0 5.0 0.00 0.01 0.01 84 1015.8
20260902004906 86 148 0.0 5.0 0.00 0.01 0.01 84 1015.6
20260902004406 86 173 4.0 6.0 0.00 0.01 0.01 83 1015.5
20260902003901 86 169 1.0 5.0 0.00 0.01 0.01 83 1015.6
20260902003401 86 211 3.0 3.0 0.00 0.01 0.01 82 1015.6
20260902002857 87 180 3.0 5.0 0.00 0.01 0.01 82 1015.6
20260902002356 87 174 2.0 6.0 0.00 0.01 0.01 81 1015.8
20260902001851 87 189 2.0 5.0 0.00 0.01 0.01 82 1015.6
20260902001346 87 162 2.0 6.0 0.00 0.01 0.01 81 1015.6
20260902000841 87 177 1.0 5.0 0.00 0.01 0.01 80 1015.5
20260902000337 88 164 3.0 7.0 0.00 0.01 0.01 81 1015.7
20260901235832 88 151 4.0 5.0 0.00 0.01 0.01 80 1015.7
20260901235331 88 184 4.0 7.0 0.00 0.01 0.01 79 1015.7
20260901234826 89 182 5.0 8.0 0.00 0.01 0.01 79 1015.8
20260901234322 89 178 2.0 6.0 0.00 0.01 0.01 80 1015.7
20260901233815 89 180 3.0 9.0 0.00 0.01 0.01 80 1015.7
20260901233311 89 154 6.0 8.0 0.00 0.01 0.01 79 1015.9
20260901232806 89 150 7.0 10.0 0.00 0.01 0.01 79 1015.6
20260901232255 90 165 5.0 8.0 0.00 0.01 0.01 77 1015.8
20260901231751 91 152 4.0 7.0 0.00 0.01 0.01 76 1015.9
20260901231242 91 149 3.0 6.0 0.00 0.01 0.01 74 1015.7
20260901230738 91 181 2.0 4.0 0.00 0.01 0.01 72 1015.8
20260901230237 91 179 3.0 8.0 0.00 0.01 0.01 71 1015.6
20260901225733 92 188 8.0 9.0 0.00 0.01 0.01 73 1015.8
20260901225227 92 188 3.0 3.0 0.00 0.01 0.01 73 1015.9
20260901224723 92 175 3.0 6.0 0.00 0.01 0.01 73 1015.9
20260901224219 92 181 3.0 5.0 0.00 0.01 0.01 73 1016.0